Погода в Кваркено

Россия / Оренбургская область     52°05′02″N   59°43′24″E
темп.,
°C
ветер,
м/с
пор.,
м/с
влажн.,
%
обл.,
%
осадки,
мм/ч
давл.,
гПа
погр.,
м
22 апреля, чт
чт2223:00+6ююв455297 0.0 103465
02:00+5ю465899 0.0 103498
05:00+4ю3562100 0.0 103564
08:00+5ю3761100 0.0 1036216
11:00+8ю5746100 0.0 1036641
14:00+8ююз4648100 0.1 1036888
17:00+11ю6839100 0.1 10341270
20:00+9ююз3653100 0.0 1034107
23 апреля, пт
пт2323:00+7юз2362100 0.1 103468
02:00+6ююв4872100 0.9 1034440
05:00+6юв4775100 0.9 1033173
08:00+8юв4966100 0.0 1033327
11:00+11ююв6853100 0.0 1032698
14:00+12ю4649100 0.0 10311604
17:00+11ю4663100 0.1 10301236
20:00+8юв4884100 0.9 1030577
24 апреля, сб
сб2423:00+7вюв71282100 0.9 1028388
02:00+7в61275100 0.0 1025407
05:00+6вюв5872100 0.1 1023290
08:00+7юв71066100 0.1 1021985
11:00+8юв71154100 0.1 1019983
14:00+8юв6105498 0.6 10171226
17:00+13юв61041100 0.6 10132026
20:00+11ю4958100 0.0 1011276
25 апреля, вс
вс2523:00+8зюз5880100 0.1 1011304
02:00+6з914825 0.0 1014481
05:00+5зсз6128844 0.0 1016454
08:00+6з698526 0.0 1018475
11:00+10зюз576784 0.0 1018659
14:00+14юз8115941 0.0 10171438
17:00+14зюз9135884 0.6 10171819
20:00+12зюз611596 0.1 1019332
26 апреля, пн
пн2623:00+9зюз3770100 0.1 1020127
02:00+9зюз4974100 0.0 1021271
05:00+7з2278100 0.0 102232
08:00+8юз2470100 0.0 1023219
11:00+9юз3369100 0.5 1023671
14:00+8св2285100 1.5 1022277
17:00+9всв5790100 3.1 1020316
20:00+8всв71195100 1.2 1017347